Starlink 2095

operational
NORAD ID: 47679 Int'l Des: 2021-012 Owner: SPXS Country: US Constellation: starlink
LEOCIRCULAR

About Starlink 2095

Description loading...

Live Position

Loading 3D Globe...

Upcoming Passes

Altitude History

Altitude vs Time

uPlot chart will show altitude changes over time

Two-Line Element Set

1 47679U 21012BM 25259.97287848 .00042729 00000-0 13419-2 0 9999
2 47679 53.0446 101.6568 0002939 105.0033 255.1293 15.32611490254234
Epoch: Sep 16, 2025 • Age: 26 hours

Current Status

Altitude 476.8 km
Velocity 7.63 km/s
Sub-Earth Point -28.21°S, 76.88°W
Launch Date Feb 16, 2021
Age 4.5 years
Type internet

Technical Details

Classification Payload
Mass 260.00 kg
Dry Mass 248.00 kg
Total Mass 260.00 kg
Length 0.20 m
Diameter 2.80 m
Span 9.00 m
Shape Box + pan
Manufacturer SPXS
Bus Type Starlink
Phase Status In Orbit
Owner/State SPXS/US

Large Constellations

Loading constellations...